Flag for Iran Weather past 2 weeks in Behbahan, Iran

Now
82 °F

Sunny.


Feels Like: 80 °F
Forecast: 65 / 91 °F
Wind: No wind

Location: Gach Saran Du Gunbadan

Current Time: Oct 24, 2014 at 6:13:19 PM

Latest Report: Oct 24, 2014 at 5:30 PM


Visibility: 10 mi

Pressure: 29.98 "Hg

Humidity: 20%

Dew point: 37 °F

Location of BehbahanLocation

Historic Weather in Behbahan — Graph

°F

Behbahan temperature yesterday

Maximum temperature yesterday: 82 °F (at 1:30 PM)
Minimum temperature yesterday: 54 °F (at 4:30 AM)
Average temperature yesterday: 68 °F

Past Weeks' High & Low Weather Summary

 TemperatureHumidityPressure
High95 °F (Oct 10, 3:30 PM)94% (Oct 22, 6:30 AM)30.15 "Hg (Oct 22, 6:30 AM)
Low54 °F (Oct 22, 5:30 AM)1% (Oct 11, 2:30 PM)29.80 "Hg (Oct 13, 5:30 AM)
Average76 °F34%30.03 "Hg
* Reported Oct 9 4:30 PM — Oct 24 4:30 PM, Behbahan, Weather by CustomWeather, © 2014

Note: Actual official high and low records may vary slightly from our data, if they occured in-between our weather recording intervals... More about our weather records

Advertising

Behbahan weather history for previous 24 hours

 ConditionsComfort  
Time TempWeatherWind HumidityBarometerVisibility
4:30 PM
Oct 24
84 °FSunny.9 mph18%29.98 "Hg10 mi
3:30 PM86 °FSunny.5 mph15%30.01 "Hg10 mi
2:30 PM86 °FSunny.5 mph14%30.01 "Hg10 mi
1:30 PM86 °FSunny.5 mph13%30.01 "Hg10 mi
12:30 PM88 °FSunny.5 mph7%30.01 "Hg10 mi
11:30 AM82 °FSunny.No wind16%30.04 "Hg10 mi
10:30 AM81 °FSunny.No wind23%30.04 "Hg10 mi
9:30 AM73 °FSunny.7 mph29%30.07 "Hg10 mi
8:30 AM68 °FSunny.5 mph40%30.07 "Hg10 mi
7:30 AM63 °FSunny.No wind52%30.07 "Hg10 mi
6:30 AM54 °FClear.No wind67%30.04 "Hg10 mi
5:30 AM54 °FClear.No wind63%30.01 "Hg10 mi
4:30 AM54 °FClear.No wind63%30.01 "Hg10 mi
3:30 AM55 °FClear.No wind63%30.01 "Hg10 mi
2:30 AM57 °FClear.No wind51%30.01 "Hg10 mi
1:30 AM59 °FClear.No wind59%30.04 "Hg10 mi
12:30 AM61 °FClear.No wind59%30.07 "Hg10 mi
11:30 PM
Oct 23
61 °FClear.2 mph59%30.07 "Hg10 mi
10:30 PM63 °FClear.2 mph52%30.07 "Hg10 mi
8:30 PM68 °FClear.2 mph40%30.07 "Hg10 mi
7:30 PM70 °FClear.5 mph33%30.07 "Hg10 mi
6:30 PM72 °FClear.No wind31%30.07 "Hg10 mi
Weather by CustomWeather, © 2014

See weather overviewHow to use our weather pages